EW8956 Weather Reports


Display with metric or nautical units.
time (UTC)temp
F
wind
direction
speed
MPH
gust
MPH
rain 1hr
in
rain 24hr
in
rain mn
in
humidity
%
barometer
mb
20260831110055 68 0 0.0 0.0 0.00 0.00 0.00 94 1021.7
20260831104559 68 0 0.0 0.0 0.00 0.00 0.00 93 1021.7
20260831103052 68 0 0.0 0.0 0.00 0.00 0.00 93 1021.5
20260831101552 68 0 0.0 0.0 0.00 0.00 0.00 93 1021.6
20260831100100 68 0 0.0 0.0 0.00 0.00 0.00 93 1021.3
20260831094603 68 0 0.0 0.0 0.00 0.00 0.00 93 1021.4
20260831093138 68 0 0.0 0.0 0.00 0.00 0.00 93 1021.3
20260831091555 68 0 0.0 0.0 0.00 0.00 0.00 93 1021.2
20260831090057 68 0 0.0 0.0 0.00 0.00 0.00 93 1021.0
20260831084635 68 0 0.0 0.0 0.00 0.00 0.00 93 1021.1
20260831083056 68 0 0.0 0.0 0.00 0.00 0.00 93 1021.3
20260831081550 68 0 0.0 0.0 0.00 0.00 0.00 92 1021.3
20260831080117 68 0 0.0 0.0 0.00 0.00 0.00 92 1021.3
20260831074555 68 0 0.0 0.0 0.00 0.00 0.00 92 1021.4
20260831073053 69 0 0.0 0.0 0.00 0.00 0.00 92 1021.5
20260831071553 69 0 0.0 0.0 0.00 0.00 0.00 92 1021.4
20260831070058 69 0 0.0 0.0 0.00 0.00 0.00 92 1021.4
20260831064557 69 0 0.0 0.0 0.00 0.00 0.00 92 1021.5
20260831063107 69 0 0.0 0.0 0.00 0.00 0.00 91 1021.5
20260831061551 69 0 0.0 0.0 0.00 0.00 0.00 91 1021.5
20260831060058 69 0 0.0 0.0 0.00 0.00 0.00 91 1021.6
20260831054556 70 0 0.0 0.0 0.00 0.00 0.00 91 1021.7
20260831053100 70 0 0.0 0.0 0.00 0.00 0.00 91 1021.7
20260831051551 70 0 0.0 0.0 0.00 0.00 0.00 90 1021.6
20260831050108 70 0 0.0 0.0 0.00 0.00 0.00 90 1021.8
20260831044554 71 0 0.0 0.0 0.00 0.00 0.00 90 1021.8
20260831043054 71 0 0.0 0.0 0.00 0.00 0.00 89 1021.7
20260831041554 71 0 0.0 0.0 0.00 0.00 0.00 89 1021.6
20260831040056 71 0 0.0 0.0 0.00 0.00 0.00 88 1021.7
20260831034602 72 0 0.0 0.0 0.00 0.00 0.00 88 1021.9
20260831033100 72 0 0.0 0.0 0.00 0.00 0.00 87 1021.9
20260831031549 73 0 0.0 0.0 0.00 0.00 0.00 86 1022.0
20260831030057 73 0 0.0 0.0 0.00 0.00 0.00 86 1022.2
20260831024559 74 0 0.0 0.0 0.00 0.00 0.00 85 1022.3
20260831023054 74 0 0.0 0.0 0.00 0.00 0.00 84 1022.3
20260831021550 74 0 0.0 0.0 0.00 0.00 0.00 82 1022.3
20260831020056 75 0 0.0 0.0 0.00 0.00 0.00 80 1021.9
20260831014553 76 0 0.0 0.0 0.00 0.00 0.00 79 1021.8
20260831013050 76 0 0.0 0.0 0.00 0.00 0.00 78 1021.8
20260831011553 77 0 0.0 0.0 0.00 0.00 0.00 76 1021.7
20260831010106 77 0 0.0 4.0 0.00 0.00 0.00 76 1021.6
20260831004553 78 0 0.0 2.0 0.00 0.00 0.00 75 1021.4
20260831003052 78 0 0.0 1.0 0.00 0.00 0.00 74 1021.3
20260831001550 79 0 0.0 0.0 0.00 0.00 0.00 73 1021.3
20260831000055 80 0 0.0 1.0 0.00 0.00 0.00 71 1021.5
20260830234554 80 0 0.0 1.0 0.00 0.00 0.00 69 1021.4
20260830233101 81 0 1.0 5.0 0.00 0.00 0.00 68 1021.5
20260830231554 82 0 0.0 4.0 0.00 0.00 0.00 67 1021.5
20260830230104 82 98 0.0 4.0 0.00 0.00 0.00 66 1021.3
20260830224559 82 0 1.0 6.0 0.00 0.00 0.00 65 1021.3
20260830223056 83 0 1.0 7.0 0.00 0.00 0.00 64 1021.1
20260830221553 83 129 1.0 7.0 0.00 0.00 0.00 64 1021.1
20260830220053 84 0 0.0 4.0 0.00 0.00 0.00 63 1021.1
20260830214552 84 198 0.0 4.0 0.00 0.00 0.00 63 1021.1
20260830213054 83 149 0.0 3.0 0.00 0.00 0.00 63 1021.1
20260830211555 84 0 0.0 2.0 0.00 0.00 0.00 62 1021.0
20260830210101 85 219 0.0 5.0 0.00 0.00 0.00 62 1021.3
20260830204557 84 86 1.0 8.0 0.00 0.00 0.00 62 1021.3
20260830203054 84 119 0.0 7.0 0.00 0.00 0.00 62 1021.4
20260830201554 86 115 1.0 9.0 0.00 0.00 0.00 58 1021.5
20260830200053 86 355 1.0 4.0 0.00 0.00 0.00 58 1021.7
20260830194607 85 0 0.0 3.0 0.00 0.00 0.00 61 1021.8
20260830193055 85 0 0.0 2.0 0.00 0.00 0.00 61 1022.0
20260830191556 83 0 0.0 1.0 0.00 0.00 0.00 63 1022.2
20260830190051 82 0 0.0 3.0 0.00 0.00 0.00 63 1022.4
20260830184548 83 0 0.0 2.0 0.00 0.00 0.00 63 1022.6
20260830183054 82 0 1.0 6.0 0.00 0.00 0.00 64 1022.9
20260830181555 83 117 0.0 4.0 0.00 0.00 0.00 63 1023.4
20260830180055 83 0 1.0 6.0 0.00 0.00 0.00 62 1023.5
20260830174616 83 0 0.0 4.0 0.00 0.00 0.00 62 1023.7
20260830173059 82 187 2.0 7.0 0.00 0.00 0.00 65 1023.9
20260830171600 84 146 0.0 3.0 0.00 0.00 0.00 64 1023.9
20260830170053 82 0 0.0 2.0 0.00 0.00 0.00 66 1024.1
20260830164554 78 0 0.0 3.0 0.00 0.00 0.00 74 1024.3
20260830163101 78 0 0.0 2.0 0.00 0.00 0.00 76 1024.6
20260830161553 78 0 0.0 1.0 0.00 0.00 0.00 76 1024.7
20260830160112 79 0 0.0 0.0 0.00 0.00 0.00 75 1024.8
20260830154547 79 0 0.0 3.0 0.00 0.00 0.00 74 1024.7
20260830153055 79 123 0.0 1.0 0.00 0.00 0.00 75 1024.9
20260830151549 75 0 0.0 3.0 0.00 0.00 0.00 81 1024.8
20260830150059 74 0 1.0 4.0 0.00 0.00 0.00 83 1024.9
20260830144603 74 173 0.0 6.0 0.00 0.00 0.00 83 1024.8
20260830143105 74 122 0.0 7.0 0.00 0.00 0.00 83 1024.9
20260830141559 73 98 0.0 2.0 0.00 0.00 0.00 88 1024.7
20260830140058 71 0 0.0 0.0 0.00 0.00 0.00 90 1024.9
20260830134601 71 0 0.0 2.0 0.00 0.00 0.00 91 1025.0
20260830133057 70 0 0.0 2.0 0.00 0.00 0.00 92 1025.0
20260830131600 70 98 0.0 1.0 0.00 0.00 0.00 93 1025.0
20260830130106 70 0 0.0 1.0 0.00 0.00 0.00 93 1024.9
20260830124553 70 98 0.0 2.0 0.00 0.00 0.00 93 1024.9
20260830123054 70 0 0.0 2.0 0.00 0.00 0.00 94 1024.8
20260830121603 70 0 0.0 2.0 0.00 0.00 0.00 94 1024.7
20260830120054 70 98 1.0 4.0 0.00 0.00 0.00 94 1024.7
20260830114555 69 0 0.0 2.0 0.00 0.00 0.00 94 1024.5
20260830113058 69 0 1.0 2.0 0.00 0.00 0.00 94 1024.5
20260830111555 69 114 0.0 3.0 0.00 0.00 0.00 94 1024.4